Skip Page Navigation
NASA JPL Caltech
NASA Logo - Jet Propulsion Laboratory + View the NASA Portal
+ Center for Near-Earth Object Studies
JPL Home Earth Solar System Stars & Galaxies Technology
JPL Solar System Dynamics
BODIES ORBITS EPHEMERIDES TOOLS PHYSICAL DATA DISCOVERY FAQ SITE MAP
IMPORTANT: The SSD Announcement email list is now available. Major changes are coming in the near future, including possible hostname and/or URL changes. To be notified of such changes, subscribe to this email list.

Please visit this page for more details.


JPL Small-Body Database Browser
Search: [ help ]  
173095 (2007 TV73)
Classification: Main-belt Asteroid          SPK-ID: 2173095
Ephemeris | Orbit Diagram | Orbital Elements | Mission Design | Physical Parameters | Discovery Circumstances | Close-Approach Data ]

[ show orbit diagram ]
Orbital Elements at Epoch 2458600.5 (2019-Apr-27.0) TDB
Reference: JPL 16 (heliocentric ecliptic J2000)
 Element Value Uncertainty (1-sigma)   Units 
e .1839901125494152 5.7695e-08  
a 2.214685368536242 9.0129e-09 au
q 1.807205158317716 1.2703e-07 au
i 5.725214616843989 4.9756e-06 deg
node 222.2948661690359 3.9616e-05 deg
peri 156.7569167417034 4.0964e-05 deg
M 179.9815808739518 1.0724e-05 deg
tp 2457998.644764278795
(2017-Sep-02.14476428)
3.4862e-05 TDB
period 1203.833657908445
3.30
7.3487e-06
2.012e-08
d
yr
n .2990446376332993 1.8255e-09 deg/d
Q 2.622165578754768 1.0671e-08 au
  Orbit Determination Parameters
   # obs. used (total)      514  
   data-arc span      11561 days (31.65 yr)  
   first obs. used      1987-09-15  
   last obs. used      2019-05-11  
   planetary ephem.      DE431  
   SB-pert. ephem.      SB431-N16  
   condition code      0  
   norm. resid. RMS      .60033  
   source      ORB  
   producer      Otto Matic  
   solution date      2019-May-30 07:41:50  

Additional Information
 Earth MOID = .810708 au 
 Jupiter MOID = 2.84009 au 
 T_jup = 3.626 
[ show covariance matrix ]

Ephemeris | Orbit Diagram | Orbital Elements | Mission Design | Physical Parameters | Discovery Circumstances | Close-Approach Data ]

Physical Parameter Table
Parameter Symbol Value Units Sigma Reference Notes
absolute magnitude H 16.8   n/a MPO320784  

173095 (2007 TV73)          Discovered 2007-Oct-13 by Lowe, A. at Mayhill
Reference: 20071224/Numbers.arcLast Updated: 2007-12-22

[ show close-approach data ]
Alternate Designations
 2007 TV73 = 2002 CS49 
Ephemeris | Orbit Diagram | Orbital Elements | Mission Design | Physical Parameters | Discovery Circumstances | Close-Approach Data ]
ABOUT SSD CREDITS/AWARDS PRIVACY/COPYRIGHT GLOSSARY LINKS
FirstGov 2019-Dec-15 02:58 UT
(server date/time)  
NASA Home Page
Site Manager:   Ryan S. Park
Webmaster  Alan B. Chamberlin